Year,Month,Day,Hour,Minute,Value (Times are PST for temperature in C)
2015,08,13,00,00,18.90
2015,08,13,00,01,18.80
2015,08,13,00,02,18.80
2015,08,13,00,03,18.80
2015,08,13,00,04,18.80
2015,08,13,00,05,18.80
2015,08,13,00,06,18.80
2015,08,13,00,07,18.80
2015,08,13,00,08,18.80
2015,08,13,00,09,18.80
2015,08,13,00,10,18.90
2015,08,13,00,11,18.90
2015,08,13,00,12,18.90
2015,08,13,00,13,18.90
2015,08,13,00,14,19.00
2015,08,13,00,15,19.00
2015,08,13,00,16,19.10
2015,08,13,00,17,19.10
2015,08,13,00,18,19.10
2015,08,13,00,19,19.10
2015,08,13,00,20,19.10
2015,08,13,00,21,19.10
2015,08,13,00,22,19.10
2015,08,13,00,23,19.10
2015,08,13,00,24,19.10
2015,08,13,00,25,19.10
2015,08,13,00,26,19.10
2015,08,13,00,27,19.10
2015,08,13,00,28,19.10
2015,08,13,00,29,19.00
2015,08,13,00,30,19.00
2015,08,13,00,31,19.00
2015,08,13,00,32,19.00
2015,08,13,00,33,19.00
2015,08,13,00,34,19.00
2015,08,13,00,35,19.00
2015,08,13,00,36,18.90
2015,08,13,00,37,18.90
2015,08,13,00,38,18.90
2015,08,13,00,39,18.90
2015,08,13,00,40,18.90
2015,08,13,00,41,18.80
2015,08,13,00,42,18.80
2015,08,13,00,43,18.80
2015,08,13,00,44,18.80
2015,08,13,00,45,18.80
2015,08,13,00,46,18.80
2015,08,13,00,47,18.80
2015,08,13,00,48,18.70
2015,08,13,00,49,18.70
2015,08,13,00,50,18.70
2015,08,13,00,51,18.70
2015,08,13,00,52,18.60
2015,08,13,00,53,18.60
2015,08,13,00,54,18.60
2015,08,13,00,55,18.50
2015,08,13,00,56,18.50
2015,08,13,00,57,18.50
2015,08,13,00,58,18.40
2015,08,13,00,59,18.40
2015,08,13,01,00,18.40
2015,08,13,01,01,18.30
2015,08,13,01,02,18.30
2015,08,13,01,03,18.30
2015,08,13,01,04,18.20
2015,08,13,01,05,18.20
2015,08,13,01,06,18.20
2015,08,13,01,07,18.10
2015,08,13,01,08,18.10
2015,08,13,01,09,18.10
2015,08,13,01,10,18.00
2015,08,13,01,11,18.00
2015,08,13,01,12,17.90
2015,08,13,01,13,17.90
2015,08,13,01,14,17.90
2015,08,13,01,15,17.90
2015,08,13,01,16,17.80
2015,08,13,01,17,17.80
2015,08,13,01,18,17.80
2015,08,13,01,19,17.80
2015,08,13,01,20,17.80
2015,08,13,01,21,17.70
2015,08,13,01,22,17.70
2015,08,13,01,23,17.70
2015,08,13,01,24,17.70
2015,08,13,01,25,17.70
2015,08,13,01,26,17.60
2015,08,13,01,27,17.60
2015,08,13,01,28,17.60
2015,08,13,01,29,17.60
2015,08,13,01,30,17.60
2015,08,13,01,31,17.60
2015,08,13,01,32,17.60
2015,08,13,01,33,17.50
2015,08,13,01,34,17.50
2015,08,13,01,35,17.50
2015,08,13,01,36,17.50
2015,08,13,01,37,17.50
2015,08,13,01,38,17.50
2015,08,13,01,39,17.50
2015,08,13,01,40,17.50
2015,08,13,01,41,17.50
2015,08,13,01,42,17.60
2015,08,13,01,43,17.60
2015,08,13,01,44,17.70
2015,08,13,01,45,17.70
2015,08,13,01,46,17.80
2015,08,13,01,47,17.90
2015,08,13,01,48,18.00
2015,08,13,01,49,18.10
2015,08,13,01,50,18.20
2015,08,13,01,51,18.20
2015,08,13,01,52,18.30
2015,08,13,01,53,18.30
2015,08,13,01,54,18.40
2015,08,13,01,55,18.40
2015,08,13,01,56,18.40
2015,08,13,01,57,18.40
2015,08,13,01,58,18.50
2015,08,13,01,59,18.50
2015,08,13,02,00,18.50
2015,08,13,02,01,18.60
2015,08,13,02,02,18.60
2015,08,13,02,03,18.60
2015,08,13,02,04,18.60
2015,08,13,02,05,18.70
2015,08,13,02,06,18.70
2015,08,13,02,07,18.70
2015,08,13,02,08,18.70
2015,08,13,02,09,18.70
2015,08,13,02,10,18.70
2015,08,13,02,11,18.70
2015,08,13,02,12,18.70
2015,08,13,02,13,18.70
2015,08,13,02,14,18.70
2015,08,13,02,15,18.70
2015,08,13,02,16,18.70
2015,08,13,02,17,18.70
2015,08,13,02,18,18.70
2015,08,13,02,19,18.80
2015,08,13,02,20,18.80
2015,08,13,02,21,18.80
2015,08,13,02,22,18.80
2015,08,13,02,23,18.70
2015,08,13,02,24,18.70
2015,08,13,02,25,18.70
2015,08,13,02,26,18.70
2015,08,13,02,27,18.70
2015,08,13,02,28,18.70
2015,08,13,02,29,18.70
2015,08,13,02,30,18.70
2015,08,13,02,31,18.70
2015,08,13,02,32,18.70
2015,08,13,02,33,18.70
2015,08,13,02,34,18.70
2015,08,13,02,35,18.70
2015,08,13,02,36,18.70
2015,08,13,02,37,18.70
2015,08,13,02,38,18.70
2015,08,13,02,39,18.70
2015,08,13,02,40,18.60
2015,08,13,02,41,18.60
2015,08,13,02,42,18.60
2015,08,13,02,43,18.60
2015,08,13,02,44,18.60
2015,08,13,02,45,18.60
2015,08,13,02,46,18.60
2015,08,13,02,47,18.60
2015,08,13,02,48,18.60
2015,08,13,02,49,18.60
2015,08,13,02,50,18.60
2015,08,13,02,51,18.60
2015,08,13,02,52,18.60
2015,08,13,02,53,18.50
2015,08,13,02,54,18.50
2015,08,13,02,55,18.50
2015,08,13,02,56,18.50
2015,08,13,02,57,18.50
2015,08,13,02,58,18.40
2015,08,13,02,59,18.40
2015,08,13,03,00,18.40
2015,08,13,03,01,18.40
2015,08,13,03,02,18.40
2015,08,13,03,03,18.40
2015,08,13,03,04,18.40
2015,08,13,03,05,18.40
2015,08,13,03,06,18.40
2015,08,13,03,07,18.40
2015,08,13,03,08,18.40
2015,08,13,03,09,18.40
2015,08,13,03,10,18.30
2015,08,13,03,11,18.30
2015,08,13,03,12,18.30
2015,08,13,03,13,18.30
2015,08,13,03,14,18.30
2015,08,13,03,15,18.30
2015,08,13,03,16,18.30
2015,08,13,03,17,18.30
2015,08,13,03,18,18.30
2015,08,13,03,19,18.30
2015,08,13,03,20,18.30
2015,08,13,03,21,18.20
2015,08,13,03,22,18.30
2015,08,13,03,23,18.20
2015,08,13,03,24,18.20
2015,08,13,03,25,18.20
2015,08,13,03,26,18.20
2015,08,13,03,27,18.20
2015,08,13,03,28,18.20
2015,08,13,03,29,18.20
2015,08,13,03,30,18.20
2015,08,13,03,31,18.20
2015,08,13,03,32,18.20
2015,08,13,03,33,18.20
2015,08,13,03,34,18.20
2015,08,13,03,35,18.20
2015,08,13,03,36,18.20
2015,08,13,03,37,18.20
2015,08,13,03,38,18.20
2015,08,13,03,39,18.20
2015,08,13,03,40,18.20
2015,08,13,03,41,18.10
2015,08,13,03,42,18.10
2015,08,13,03,43,18.10
2015,08,13,03,44,18.10
2015,08,13,03,45,18.10
2015,08,13,03,46,18.10
2015,08,13,03,47,18.10
2015,08,13,03,48,18.10
2015,08,13,03,49,18.10
2015,08,13,03,50,18.00
2015,08,13,03,51,18.00
2015,08,13,03,52,18.00
2015,08,13,03,53,18.00
2015,08,13,03,54,18.00
2015,08,13,03,55,17.90
2015,08,13,03,56,17.90
2015,08,13,03,57,17.90
2015,08,13,03,58,17.90
2015,08,13,03,59,17.90
2015,08,13,04,00,17.90
2015,08,13,04,01,17.80
2015,08,13,04,02,17.80
2015,08,13,04,03,17.80
2015,08,13,04,04,17.70
2015,08,13,04,05,17.70
2015,08,13,04,06,17.70
2015,08,13,04,07,17.70
2015,08,13,04,08,17.60
2015,08,13,04,09,17.60
2015,08,13,04,10,17.60
2015,08,13,04,11,17.50
2015,08,13,04,12,17.50
2015,08,13,04,13,17.40
2015,08,13,04,14,17.40
2015,08,13,04,15,17.40
2015,08,13,04,16,17.30
2015,08,13,04,17,17.30
2015,08,13,04,18,17.30
2015,08,13,04,19,17.20
2015,08,13,04,20,17.20
2015,08,13,04,21,17.20
2015,08,13,04,22,17.20
2015,08,13,04,23,17.10
2015,08,13,04,24,17.10
2015,08,13,04,25,17.00
2015,08,13,04,26,17.00
2015,08,13,04,27,17.00
2015,08,13,04,28,16.90
2015,08,13,04,29,16.90
2015,08,13,04,30,16.90
2015,08,13,04,31,16.90
2015,08,13,04,32,16.90
2015,08,13,04,33,16.80
2015,08,13,04,34,16.80
2015,08,13,04,35,16.80
2015,08,13,04,36,16.80
2015,08,13,04,37,16.80
2015,08,13,04,38,16.80
2015,08,13,04,39,16.80
2015,08,13,04,40,16.80
2015,08,13,04,41,16.80
2015,08,13,04,42,16.80
2015,08,13,04,43,16.80
2015,08,13,04,44,16.80
2015,08,13,04,45,16.70
2015,08,13,04,46,16.70
2015,08,13,04,47,16.70
2015,08,13,04,48,16.70
2015,08,13,04,49,16.70
2015,08,13,04,50,16.70
2015,08,13,04,51,16.70
2015,08,13,04,52,16.70
2015,08,13,04,53,16.70
2015,08,13,04,54,16.70
2015,08,13,04,55,16.70
2015,08,13,04,56,16.70
2015,08,13,04,57,16.70
2015,08,13,04,58,16.70
2015,08,13,04,59,16.70
2015,08,13,05,00,16.70
2015,08,13,05,01,16.70
2015,08,13,05,02,16.70
2015,08,13,05,03,16.70
2015,08,13,05,04,16.70
2015,08,13,05,05,16.60
2015,08,13,05,06,16.60
2015,08,13,05,07,16.60
2015,08,13,05,08,16.60
2015,08,13,05,09,16.60
2015,08,13,05,10,16.60
2015,08,13,05,11,16.60
2015,08,13,05,12,16.60
2015,08,13,05,13,16.60
2015,08,13,05,14,16.60
2015,08,13,05,15,16.60
2015,08,13,05,16,16.60
2015,08,13,05,17,16.60
2015,08,13,05,18,16.60
2015,08,13,05,19,16.60
2015,08,13,05,20,16.60
2015,08,13,05,21,16.60
2015,08,13,05,22,16.60
2015,08,13,05,23,16.60
2015,08,13,05,24,16.60
2015,08,13,05,25,16.60
2015,08,13,05,26,16.60
2015,08,13,05,27,16.60
2015,08,13,05,28,16.60
2015,08,13,05,29,16.60
2015,08,13,05,30,16.60
2015,08,13,05,31,16.60
2015,08,13,05,32,16.60
2015,08,13,05,33,16.60
2015,08,13,05,34,16.60
2015,08,13,05,35,16.60
2015,08,13,05,36,16.60
2015,08,13,05,37,16.60
2015,08,13,05,38,16.60
2015,08,13,05,39,16.60
2015,08,13,05,40,16.60
2015,08,13,05,41,16.60
2015,08,13,05,42,16.60
2015,08,13,05,43,16.60
2015,08,13,05,44,16.60
2015,08,13,05,45,16.60
2015,08,13,05,46,16.60
2015,08,13,05,47,16.60
2015,08,13,05,48,16.60
2015,08,13,05,49,16.60
2015,08,13,05,50,16.60
2015,08,13,05,51,16.60
2015,08,13,05,52,16.50
2015,08,13,05,53,16.50
2015,08,13,05,54,16.50
2015,08,13,05,55,16.50
2015,08,13,05,56,16.50
2015,08,13,05,57,16.40
2015,08,13,05,58,16.40
2015,08,13,05,59,16.40
2015,08,13,06,00,16.40
2015,08,13,06,01,16.40
2015,08,13,06,02,16.40
2015,08,13,06,03,16.40
2015,08,13,06,04,16.40
2015,08,13,06,05,16.40
2015,08,13,06,06,16.40
2015,08,13,06,07,16.40
2015,08,13,06,08,16.40
2015,08,13,06,09,16.40
2015,08,13,06,10,16.40
2015,08,13,06,11,16.30
2015,08,13,06,12,16.30
2015,08,13,06,13,16.30
2015,08,13,06,14,16.30
2015,08,13,06,15,16.30
2015,08,13,06,16,16.30
2015,08,13,06,17,16.30
2015,08,13,06,18,16.30
2015,08,13,06,19,16.30
2015,08,13,06,20,16.30
2015,08,13,06,21,16.30
2015,08,13,06,22,16.30
2015,08,13,06,23,16.30
2015,08,13,06,24,16.30
2015,08,13,06,25,16.30
2015,08,13,06,26,16.30
2015,08,13,06,27,16.30
2015,08,13,06,28,16.30
2015,08,13,06,29,16.30
2015,08,13,06,30,16.30
2015,08,13,06,31,16.20
2015,08,13,06,32,16.20
2015,08,13,06,33,16.20
2015,08,13,06,34,16.20
2015,08,13,06,35,16.20
2015,08,13,06,36,16.20
2015,08,13,06,37,16.20
2015,08,13,06,38,16.20
2015,08,13,06,39,16.20
2015,08,13,06,40,16.20
2015,08,13,06,41,16.20
2015,08,13,06,42,16.20
2015,08,13,06,43,16.20
2015,08,13,06,44,16.20
2015,08,13,06,45,16.20
2015,08,13,06,46,16.20
2015,08,13,06,47,16.20
2015,08,13,06,48,16.20
2015,08,13,06,49,16.20
2015,08,13,06,50,16.10
2015,08,13,06,51,16.10
2015,08,13,06,52,16.10
2015,08,13,06,53,16.20
2015,08,13,06,54,16.10
2015,08,13,06,55,16.10
2015,08,13,06,56,16.10
2015,08,13,06,57,16.10
2015,08,13,06,58,16.10
2015,08,13,06,59,16.10
2015,08,13,07,00,16.10
2015,08,13,07,01,16.10
2015,08,13,07,02,16.10
2015,08,13,07,03,16.10
2015,08,13,07,04,16.10
2015,08,13,07,05,16.10
2015,08,13,07,06,16.10
2015,08,13,07,07,16.10
2015,08,13,07,08,16.10
2015,08,13,07,09,16.10
2015,08,13,07,10,16.10
2015,08,13,07,11,16.10
2015,08,13,07,12,16.10
2015,08,13,07,13,16.10
2015,08,13,07,14,16.10
2015,08,13,07,15,16.20
2015,08,13,07,16,16.20
2015,08,13,07,17,16.20
2015,08,13,07,18,16.20
2015,08,13,07,19,16.20
2015,08,13,07,20,16.10
2015,08,13,07,21,16.20
2015,08,13,07,22,16.20
2015,08,13,07,23,16.20
2015,08,13,07,24,16.20
2015,08,13,07,25,16.20
2015,08,13,07,26,16.20
2015,08,13,07,27,16.20
2015,08,13,07,28,16.30
2015,08,13,07,29,16.30
2015,08,13,07,30,16.30
2015,08,13,07,31,16.30
2015,08,13,07,32,16.30
2015,08,13,07,33,16.30
2015,08,13,07,34,16.30
2015,08,13,07,35,16.40
2015,08,13,07,36,16.40
2015,08,13,07,37,16.40
2015,08,13,07,38,16.40
2015,08,13,07,39,16.40
2015,08,13,07,40,16.40
2015,08,13,07,41,16.40
2015,08,13,07,42,16.40
2015,08,13,07,43,16.40
2015,08,13,07,44,16.40
2015,08,13,07,45,16.40
2015,08,13,07,46,16.50
2015,08,13,07,47,16.50
2015,08,13,07,48,16.50
2015,08,13,07,49,16.50
2015,08,13,07,50,16.50
2015,08,13,07,51,16.50
2015,08,13,07,52,16.50
2015,08,13,07,53,16.50
2015,08,13,07,54,16.50
2015,08,13,07,55,16.50
2015,08,13,07,56,16.50
2015,08,13,07,57,16.50
2015,08,13,07,58,16.50
2015,08,13,07,59,16.50
2015,08,13,08,00,16.50
2015,08,13,08,01,16.50
2015,08,13,08,02,16.50
2015,08,13,08,03,16.50
2015,08,13,08,04,16.50
2015,08,13,08,05,16.50
2015,08,13,08,06,16.50
2015,08,13,08,07,16.50
2015,08,13,08,08,16.60
2015,08,13,08,09,16.60
2015,08,13,08,10,16.60
2015,08,13,08,11,16.60
2015,08,13,08,12,16.70
2015,08,13,08,13,16.70
2015,08,13,08,14,16.70
2015,08,13,08,15,16.70
2015,08,13,08,16,16.80
2015,08,13,08,17,16.80
2015,08,13,08,18,16.90
2015,08,13,08,19,16.90
2015,08,13,08,20,17.10
2015,08,13,08,21,17.10
2015,08,13,08,22,17.20
2015,08,13,08,23,17.20
2015,08,13,08,24,17.20
2015,08,13,08,25,17.30
2015,08,13,08,26,17.30
2015,08,13,08,27,17.30
2015,08,13,08,28,17.40
2015,08,13,08,29,17.40
2015,08,13,08,30,17.40
2015,08,13,08,31,17.40
2015,08,13,08,32,17.50
2015,08,13,08,33,17.50
2015,08,13,08,34,17.60
2015,08,13,08,35,17.60
2015,08,13,08,36,17.70
2015,08,13,08,37,17.70
2015,08,13,08,38,17.80
2015,08,13,08,39,17.90
2015,08,13,08,40,17.90
2015,08,13,08,41,18.00
2015,08,13,08,42,18.00
2015,08,13,08,43,18.10
2015,08,13,08,44,18.20
2015,08,13,08,45,18.20
2015,08,13,08,46,18.30
2015,08,13,08,47,18.30
2015,08,13,08,48,18.40
2015,08,13,08,49,18.40
2015,08,13,08,50,18.40
2015,08,13,08,51,18.40
2015,08,13,08,52,18.50
2015,08,13,08,53,18.50
2015,08,13,08,54,18.60
2015,08,13,08,55,18.70
2015,08,13,08,56,18.80
2015,08,13,08,57,18.80
2015,08,13,08,58,18.90
2015,08,13,08,59,18.90
2015,08,13,09,00,19.00
2015,08,13,09,01,19.00
2015,08,13,09,02,19.10
2015,08,13,09,03,19.10
2015,08,13,09,04,19.20
2015,08,13,09,05,19.20
2015,08,13,09,06,19.30
2015,08,13,09,07,19.30
2015,08,13,09,08,19.30
2015,08,13,09,09,19.40
2015,08,13,09,10,19.50
2015,08,13,09,11,19.50
2015,08,13,09,12,19.50
2015,08,13,09,13,19.60
2015,08,13,09,14,19.70
2015,08,13,09,15,19.70
2015,08,13,09,16,19.70
2015,08,13,09,17,19.70
2015,08,13,09,18,19.80
2015,08,13,09,19,19.80
2015,08,13,09,20,19.80
2015,08,13,09,21,19.80
2015,08,13,09,22,19.80
2015,08,13,09,23,19.80
2015,08,13,09,24,19.80
2015,08,13,09,25,19.80
2015,08,13,09,26,19.80
2015,08,13,09,27,19.90
2015,08,13,09,28,19.90
2015,08,13,09,29,19.90
2015,08,13,09,30,20.00
2015,08,13,09,31,20.10
2015,08,13,09,32,20.10
2015,08,13,09,33,20.20
2015,08,13,09,34,20.20
2015,08,13,09,35,20.30
2015,08,13,09,36,20.30
2015,08,13,09,37,20.40
2015,08,13,09,38,20.40
2015,08,13,09,39,20.50
2015,08,13,09,40,20.50
2015,08,13,09,41,20.50
2015,08,13,09,42,20.40
2015,08,13,09,43,20.40
2015,08,13,09,44,20.40
2015,08,13,09,45,20.40
2015,08,13,09,46,20.40
2015,08,13,09,47,20.40
2015,08,13,09,48,20.40
2015,08,13,09,49,20.50
2015,08,13,09,50,20.50
2015,08,13,09,51,20.60
2015,08,13,09,52,20.60
2015,08,13,09,53,20.60
2015,08,13,09,54,20.60
2015,08,13,09,55,20.70
2015,08,13,09,56,20.70
2015,08,13,09,57,20.70
2015,08,13,09,58,20.70
2015,08,13,09,59,20.70
2015,08,13,10,00,20.80
2015,08,13,10,01,20.80
2015,08,13,10,02,20.80
2015,08,13,10,03,20.80
2015,08,13,10,04,20.80
2015,08,13,10,05,20.80
2015,08,13,10,06,20.90
2015,08,13,10,07,21.00
2015,08,13,10,08,21.00
2015,08,13,10,09,20.90
2015,08,13,10,10,20.90
2015,08,13,10,11,20.90
2015,08,13,10,12,20.90
2015,08,13,10,13,20.90
2015,08,13,10,14,21.00
2015,08,13,10,15,21.00
2015,08,13,10,16,21.10
2015,08,13,10,17,21.20
2015,08,13,10,18,21.30
2015,08,13,10,19,21.30
2015,08,13,10,20,21.40
2015,08,13,10,21,21.50
2015,08,13,10,22,21.50
2015,08,13,10,23,21.60
2015,08,13,10,24,21.60
2015,08,13,10,25,21.60
2015,08,13,10,26,21.70
2015,08,13,10,27,21.80
2015,08,13,10,28,21.80
2015,08,13,10,29,21.90
2015,08,13,10,30,21.90
2015,08,13,10,31,21.90
2015,08,13,10,32,21.90
2015,08,13,10,33,21.90
2015,08,13,10,34,21.80
2015,08,13,10,35,21.80
2015,08,13,10,36,21.80
2015,08,13,10,37,21.80
2015,08,13,10,38,21.70
2015,08,13,10,39,21.60
2015,08,13,10,40,21.60
2015,08,13,10,41,21.60
2015,08,13,10,42,21.50
2015,08,13,10,43,21.40
2015,08,13,10,44,21.40
2015,08,13,10,45,21.40
2015,08,13,10,46,21.40
2015,08,13,10,47,21.40
2015,08,13,10,48,21.40
2015,08,13,10,49,21.40
2015,08,13,10,50,21.30
2015,08,13,10,51,21.30
2015,08,13,10,52,21.40
2015,08,13,10,53,21.50
2015,08,13,10,54,21.60
2015,08,13,10,55,21.60
2015,08,13,10,56,21.70
2015,08,13,10,57,21.60
2015,08,13,10,58,21.60
2015,08,13,10,59,21.60
2015,08,13,11,00,21.60
2015,08,13,11,01,21.70
2015,08,13,11,02,21.70
2015,08,13,11,03,21.70
2015,08,13,11,04,21.70
2015,08,13,11,05,21.70
2015,08,13,11,06,21.80
2015,08,13,11,07,21.80
2015,08,13,11,08,21.80
2015,08,13,11,09,21.90
2015,08,13,11,10,21.90
2015,08,13,11,11,21.90
2015,08,13,11,12,21.90
2015,08,13,11,13,21.90
2015,08,13,11,14,22.00
2015,08,13,11,15,22.00
2015,08,13,11,16,22.00
2015,08,13,11,17,22.00
2015,08,13,11,18,22.00
2015,08,13,11,19,22.10
2015,08,13,11,20,22.20
2015,08,13,11,21,22.20
2015,08,13,11,22,22.20
2015,08,13,11,23,22.20
2015,08,13,11,24,22.10
2015,08,13,11,25,22.20
2015,08,13,11,26,22.20
2015,08,13,11,27,22.20
2015,08,13,11,28,22.20
2015,08,13,11,29,22.30
2015,08,13,11,30,22.30
2015,08,13,11,31,22.50
2015,08,13,11,32,22.60
2015,08,13,11,33,22.70
2015,08,13,11,34,22.70
2015,08,13,11,35,22.70
2015,08,13,11,36,22.70
2015,08,13,11,37,22.60
2015,08,13,11,38,22.60
2015,08,13,11,39,22.60
2015,08,13,11,40,22.60
2015,08,13,11,41,22.60
2015,08,13,11,42,22.60
2015,08,13,11,43,22.60
2015,08,13,11,44,22.70
2015,08,13,11,45,22.70
2015,08,13,11,46,22.80
2015,08,13,11,47,22.80
2015,08,13,11,48,22.80
2015,08,13,11,49,22.90
2015,08,13,11,50,22.90
2015,08,13,11,51,22.80
2015,08,13,11,52,22.70
2015,08,13,11,53,22.70
2015,08,13,11,54,22.70
2015,08,13,11,55,22.60
2015,08,13,11,56,22.60
2015,08,13,11,57,22.60
2015,08,13,11,58,22.60
2015,08,13,11,59,22.60
2015,08,13,12,00,22.60
2015,08,13,12,01,22.60
2015,08,13,12,02,22.60
2015,08,13,12,03,22.60
2015,08,13,12,04,22.60
2015,08,13,13,12,24.60
2015,08,13,13,13,24.60
2015,08,13,13,14,24.70
2015,08,13,13,15,24.80
2015,08,13,13,16,24.80
2015,08,13,13,17,24.80
2015,08,13,13,18,24.80
2015,08,13,13,19,24.80
2015,08,13,13,20,24.80
2015,08,13,13,21,24.80
2015,08,13,13,22,24.80
2015,08,13,13,23,24.80
2015,08,13,13,24,24.90
2015,08,13,13,25,24.90
2015,08,13,13,26,24.90
2015,08,13,13,27,24.90
2015,08,13,13,28,24.90
2015,08,13,13,29,25.00
2015,08,13,13,30,25.00
2015,08,13,13,31,25.10
2015,08,13,13,32,25.00
2015,08,13,13,33,24.90
2015,08,13,13,34,24.80
2015,08,13,13,35,24.70
2015,08,13,13,36,24.80
2015,08,13,13,37,24.80
2015,08,13,13,38,24.90
2015,08,13,13,39,24.90
2015,08,13,13,40,24.90
2015,08,13,13,41,24.90
2015,08,13,13,42,24.80
2015,08,13,13,43,24.80
2015,08,13,13,44,24.80
2015,08,13,13,45,24.70
2015,08,13,13,46,24.70
2015,08,13,13,47,24.80
2015,08,13,13,48,24.80
2015,08,13,13,49,24.80
2015,08,13,13,50,24.80
2015,08,13,13,51,24.80
2015,08,13,13,52,24.90
2015,08,13,13,53,24.90
2015,08,13,13,54,25.00
2015,08,13,13,55,25.10
2015,08,13,13,56,25.20
2015,08,13,13,57,25.20
2015,08,13,13,58,25.30
2015,08,13,13,59,25.40
2015,08,13,14,00,25.40
2015,08,13,14,01,25.40
2015,08,13,14,02,25.40
2015,08,13,14,03,25.50
2015,08,13,14,04,25.50
2015,08,13,14,05,25.60
2015,08,13,14,06,25.60
2015,08,13,14,07,25.60
2015,08,13,14,08,25.70
2015,08,13,14,09,25.70
2015,08,13,14,10,25.80
2015,08,13,14,11,25.80
2015,08,13,14,12,25.80
2015,08,13,14,13,25.80
2015,08,13,14,14,25.80
2015,08,13,14,15,25.80
2015,08,13,14,16,25.80
2015,08,13,14,17,25.80
2015,08,13,14,18,25.90
2015,08,13,14,19,25.90
2015,08,13,14,20,25.90
2015,08,13,14,21,25.90
2015,08,13,14,22,25.90
2015,08,13,14,23,26.00
2015,08,13,14,24,26.00
2015,08,13,14,25,26.10
2015,08,13,14,26,26.10
2015,08,13,14,27,26.10
2015,08,13,14,28,26.10
2015,08,13,14,29,26.10
2015,08,13,14,30,26.10
2015,08,13,14,31,26.00
2015,08,13,14,32,25.90
2015,08,13,14,33,26.00
2015,08,13,14,34,26.00
2015,08,13,14,35,26.10
2015,08,13,14,36,26.10
2015,08,13,14,37,26.10
2015,08,13,14,38,26.10
2015,08,13,14,39,26.10
2015,08,13,14,40,26.20
2015,08,13,14,41,26.20
2015,08,13,14,42,26.30
2015,08,13,14,43,26.30
2015,08,13,14,44,26.40
2015,08,13,14,45,26.50
2015,08,13,14,46,26.50
2015,08,13,14,47,26.50
2015,08,13,14,48,26.40
2015,08,13,14,49,26.40
2015,08,13,14,50,26.40
2015,08,13,14,51,26.40
2015,08,13,14,52,26.40
2015,08,13,14,53,26.50
2015,08,13,14,54,26.60
2015,08,13,14,55,26.60
2015,08,13,14,56,26.60
2015,08,13,14,57,26.60
2015,08,13,14,58,26.60
2015,08,13,14,59,26.60
2015,08,13,15,00,26.60
2015,08,13,15,01,26.60
2015,08,13,15,02,26.60
2015,08,13,15,03,26.60
2015,08,13,15,04,26.60
2015,08,13,15,05,26.60
2015,08,13,15,06,26.70
2015,08,13,15,07,26.70
2015,08,13,15,08,26.70
2015,08,13,15,09,26.70
2015,08,13,15,10,26.80
2015,08,13,15,11,26.90
2015,08,13,15,12,26.90
2015,08,13,15,13,26.90
2015,08,13,15,14,26.90
2015,08,13,15,15,26.90
2015,08,13,15,16,27.00
2015,08,13,15,17,27.00
2015,08,13,15,18,27.10
2015,08,13,15,19,27.10
2015,08,13,15,20,27.10
2015,08,13,15,21,27.20
2015,08,13,15,22,27.20
2015,08,13,15,23,27.20
2015,08,13,15,24,27.20
2015,08,13,15,25,27.20
2015,08,13,15,26,27.20
2015,08,13,15,27,27.10
2015,08,13,15,28,27.00
2015,08,13,15,29,27.00
2015,08,13,15,30,27.10
2015,08,13,15,31,27.20
2015,08,13,15,32,27.20
2015,08,13,15,33,27.20
2015,08,13,15,34,27.20
2015,08,13,15,35,27.20
2015,08,13,15,36,27.30
2015,08,13,15,37,27.30
2015,08,13,15,38,27.30
2015,08,13,15,39,27.30
2015,08,13,15,40,27.30
2015,08,13,15,41,27.30
2015,08,13,15,42,27.40
2015,08,13,15,43,27.40
2015,08,13,15,44,27.40
2015,08,13,15,45,27.40
2015,08,13,15,46,27.50
2015,08,13,15,47,27.50
2015,08,13,15,48,27.50
2015,08,13,15,49,27.60
2015,08,13,15,50,27.50
2015,08,13,15,51,27.50
2015,08,13,15,52,27.50
2015,08,13,15,53,27.50
2015,08,13,15,54,27.60
2015,08,13,15,55,27.60
2015,08,13,15,56,27.70
2015,08,13,15,57,27.70
2015,08,13,15,58,27.70
2015,08,13,15,59,27.70
2015,08,13,16,00,27.80
2015,08,13,16,01,27.80
2015,08,13,16,02,27.90
2015,08,13,16,03,27.90
2015,08,13,16,04,28.10
2015,08,13,16,05,28.20
2015,08,13,16,06,28.20
2015,08,13,16,07,28.30
2015,08,13,16,08,28.30
2015,08,13,16,09,28.30
2015,08,13,16,10,28.30
2015,08,13,16,11,28.20
2015,08,13,16,12,28.20
2015,08,13,16,13,28.30
2015,08,13,16,14,28.30
2015,08,13,16,15,28.30
2015,08,13,16,16,28.20
2015,08,13,16,17,28.20
2015,08,13,16,18,28.10
2015,08,13,16,19,28.10
2015,08,13,16,20,28.10
2015,08,13,16,21,28.10
2015,08,13,16,22,28.10
2015,08,13,16,23,28.10
2015,08,13,16,24,28.10
2015,08,13,16,25,28.10
2015,08,13,16,26,28.10
2015,08,13,16,27,28.10
2015,08,13,16,28,28.10
2015,08,13,16,29,28.10
2015,08,13,16,30,28.00
2015,08,13,16,31,27.90
2015,08,13,16,32,27.90
2015,08,13,16,33,27.90
2015,08,13,16,34,27.90
2015,08,13,16,35,27.90
2015,08,13,16,36,28.10
2015,08,13,16,37,28.20
2015,08,13,16,38,28.20
2015,08,13,16,39,28.30
2015,08,13,16,40,28.40
2015,08,13,16,41,28.40
2015,08,13,16,42,28.30
2015,08,13,16,43,28.30
2015,08,13,16,44,28.30
2015,08,13,16,45,28.30
2015,08,13,16,46,28.30
2015,08,13,16,47,28.30
2015,08,13,16,48,28.30
2015,08,13,16,49,28.40
2015,08,13,16,50,28.40
2015,08,13,16,51,28.40
2015,08,13,16,52,28.40
2015,08,13,16,53,28.40
2015,08,13,16,54,28.40
2015,08,13,16,55,28.40
2015,08,13,16,56,28.40
2015,08,13,16,57,28.30
2015,08,13,16,58,28.30
2015,08,13,16,59,28.30
2015,08,13,17,00,28.30
2015,08,13,17,01,28.40
2015,08,13,17,02,28.40
2015,08,13,17,03,28.50
2015,08,13,17,04,28.50
2015,08,13,17,05,28.50
2015,08,13,17,06,28.60
2015,08,13,17,07,28.60
2015,08,13,17,08,28.70
2015,08,13,17,09,28.80
2015,08,13,17,10,28.80
2015,08,13,17,11,28.80
2015,08,13,17,12,28.80
2015,08,13,17,13,28.70
2015,08,13,17,14,28.70
2015,08,13,17,15,28.70
2015,08,13,17,16,28.70
2015,08,13,17,17,28.60
2015,08,13,17,18,28.60
2015,08,13,17,19,28.60
2015,08,13,17,20,28.60
2015,08,13,17,21,28.60
2015,08,13,17,22,28.50
2015,08,13,17,23,28.50
2015,08,13,17,24,28.60
2015,08,13,17,25,28.50
2015,08,13,17,26,28.50
2015,08,13,17,27,28.50
2015,08,13,17,28,28.50
2015,08,13,17,29,28.50
2015,08,13,17,30,28.50
2015,08,13,17,31,28.50
2015,08,13,17,32,28.50
2015,08,13,17,33,28.40
2015,08,13,17,34,28.40
2015,08,13,17,35,28.40
2015,08,13,17,36,28.40
2015,08,13,17,37,28.40
2015,08,13,17,38,28.40
2015,08,13,17,39,28.50
2015,08,13,17,40,28.50
2015,08,13,17,41,28.50
2015,08,13,17,42,28.60
2015,08,13,17,43,28.60
2015,08,13,17,44,28.60
2015,08,13,17,45,28.60
2015,08,13,17,46,28.60
2015,08,13,17,47,28.50
2015,08,13,17,48,28.40
2015,08,13,17,49,28.40
2015,08,13,17,50,28.50
2015,08,13,17,51,28.50
2015,08,13,17,52,28.50
2015,08,13,17,53,28.60
2015,08,13,17,54,28.70
2015,08,13,17,55,28.70
2015,08,13,17,56,28.80
2015,08,13,17,57,28.80
2015,08,13,17,58,28.80
2015,08,13,17,59,28.70
2015,08,13,18,00,28.70
2015,08,13,18,01,28.70
2015,08,13,18,02,28.70
2015,08,13,18,03,28.60
2015,08,13,18,04,28.60
2015,08,13,18,05,28.60
2015,08,13,18,06,28.50
2015,08,13,18,07,28.50
2015,08,13,18,08,28.50
2015,08,13,18,09,28.40
2015,08,13,18,10,28.40
2015,08,13,18,11,28.30
2015,08,13,18,12,28.30
2015,08,13,18,13,28.30
2015,08,13,18,14,28.20
2015,08,13,18,15,28.20
2015,08,13,18,16,28.20
2015,08,13,18,17,28.20
2015,08,13,18,18,28.20
2015,08,13,18,19,28.20
2015,08,13,18,20,28.20
2015,08,13,18,21,28.20
2015,08,13,18,22,28.30
2015,08,13,18,23,28.30
2015,08,13,18,24,28.30
2015,08,13,18,25,28.40
2015,08,13,18,26,28.40